Погода в Гусь-Хрустальном

Россия / Владимирская область     55°37′11″N   40°39′28″E
темп.,
°C
ветер,
м/с
пор.,
м/с
влажн.,
%
обл.,
%
осадки,
мм/ч
давл.,
гПа
погр.,
м
18 апреля, вс
вс1800:00+7всв513605 0.0 1021503
03:00+5всв513706 0.0 1021430
06:00+5всв5127293 0.0 1021465
09:00+7в51162100 0.0 1021620
12:00+8в4866100 0.5 1021830
15:00+6вюв31089100 2.8 1022619
18:00+8вюв2977100 0.6 1022494
21:00+7вюв51275100 0.6 1023750
19 апреля, пн
пн1900:00+6св41183100 0.1 1023490
03:00+4всв51191100 0.1 1024489
06:00+4всв51186100 0.0 1024496
09:00+6всв61067100 0.0 1024691
12:00+8всв6957100 0.0 10241042
15:00+9всв5953100 0.0 10241436
18:00+7всв61049100 0.0 10241445
21:00+5всв51052100 0.0 10251132
20 апреля, вт
вт2000:00+4в51164100 0.0 1024870
03:00+3в51271100 0.0 1024735
06:00+2в51172100 0.3 1023714
09:00+2в61291100 0.9 1023655
12:00+4в61191100 0.5 1022956
15:00+3в51296100 0.8 1022783
18:00+3в61494100 0.4 1019902
21:00+5в71780100 1.9 10161198
21 апреля, ср
ср2100:00+5вюв81986100 4.0 10111209
03:00+4вюв81894100 12.4 10081174
06:00+5вюв81792100 1.6 10061017
09:00+6юв81691100 2.3 10041266
12:00+7юв81591100 1.3 10021215
15:00+4ю71596100 1.7 1005837
18:00+4ююз71488100 0.7 10091169
21:00+5ююз6128397 0.9 10121059
22 апреля, чт
чт2200:00+5ююз5127849 0.0 1013727
03:00+3ююз411957 0.0 1015412
06:00+3ю4119468 0.0 1017351
09:00+7ююз5107995 0.0 1018789
12:00+9ююз4976100 0.2 10191061
15:00+12ююз5861100 0.4 10191511
18:00+10ююз47726 0.6 1020555
21:00+7ююв248775 0.7 102178